Regional Weather Roundup
Issued by NWS

Home | Current Version | Previous Version | Graphics & Text | Print | Product List | Glossary On
Versions: 1 2 3 4 5 6 7 8 9 10 11 12 13 14 15 16 17 18 19 20 21 22 23 24 25 26 27 28 29 30 31 32 33 34 35 36 37 38 39 40 41 42 43 44 45 46 47 48 49 50
000
ASUS43 KLMK 261202
RWRKY
KENTUCKY REGIONAL WEATHER ROUNDUP
NATIONAL WEATHER SERVICE LOUISVILLE KY
800 AM EDT FRI AUG 26 2016

NOTE "FAIR" INDICATES FEW OR NO CLOUDS BELOW 12,000 FEET
WITH NO SIGNIFICANT WEATHER AND/OR OBSTRUCTIONS TO VISIBILITY.

KYZ001>023-026-027-061>063-070>075-261300-
WESTERN AND SOUTH CENTRAL KENTUCKY

CITY           SKY/WX    TMP DP  RH WIND       PRES   REMARKS
PADUCAH        CLOUDY    75  73  93 CALM      30.09R FOG
HENDERSON      CLEAR     72  68  88 CALM      30.10R
OWENSBORO      CLOUDY    76  76 100 S5        30.12R
HOPKINSVILLE   MOCLDY    75  75 100 CALM      30.10S
BOWLING GREEN  CLEAR     75  73  93 CALM      30.12S FOG
GLASGOW        CLOUDY    72  72 100 CALM      30.13S FOG
$$

KYZ024-025-028>034-038-045-046-053-261300-
NORTH CENTRAL KENTUCKY

CITY           SKY/WX    TMP DP  RH WIND       PRES   REMARKS
LOUISVILLE/SDF PTCLDY    75  71  87 CALM      30.12R
LOUISVILLE/LOU PTCLDY    75  70  84 CALM      30.12R
FORT KNOX      PTCLDY    70  70 100 E1        30.12R
$$

KYZ035>037-039>044-047>052-055>060-089>105-261300-
NORTHEAST KENTUCKY

CITY           SKY/WX    TMP DP  RH WIND       PRES   REMARKS
LEXINGTON      SUNNY     71  68  90 S5        30.15S
COVINGTON      MOSUNNY   72  71  97 CALM      30.14R
FRANKFORT      CLEAR     72  68  87 CALM      30.13S
$$

KYZ054-064>069-076>088-106>120-261300-
SOUTHEAST KENTUCKY

CITY           SKY/WX    TMP DP  RH WIND       PRES   REMARKS
JACKSON        MOSUNNY   73  71  93 CALM      30.19R
LONDON         MOSUNNY   70  68  93 S3        30.18R FOG
SOMERSET       MOSUNNY   70  70 100 CALM      30.17S FOG
MIDDLESBORO    FOG       70  70 100 CALM      30.19S VSB 1/2
MONTICELLO     FOG      N/A N/A N/A NE10      30.18R VSB 1/4
$$




USA.gov is the U.S. government's official web portal to all federal, state and local government web resources and services.